Wind_Speed
32 32 34 35 35 35 36 37 38 40 41 41 42 43 44 45 45 46 47 48 48 49 50 51 52 53 53 54 55 56 58 59 59 58 60 60 61 61 61 62 63 64 65
33 34 35 35 35 36 37 38 39 41 42 43 44 44 45 46 47 48 48 49 50 51 52 53 54 55 56 57 57 58 59 61 62 62 62 62 63 64 65 66 67 68 68
34 34 35 35 36 38 39 40 41 42 43 44 44 45 46 47 48 49 50 51 52 53 54 55 56 57 58 59 60 61 62 63 64 64 63 65 66 68 69 69 70 71 72
34 35 35 37 38 40 40 41 42 43 44 45 46 46 48 49 50 51 52 53 54 55 56 57 58 59 60 61 62 63 64 65 65 66 67 68 69 70 72 72 73 73 74
35 35 37 38 40 41 42 42 43 44 45 46 47 48 50 51 52 54 54 55 56 57 58 59 60 61 62 63 64 65 66 67 68 69 70 70 71 73 74 75 75 75 75
35 36 38 39 41 42 43 43 44 45 46 47 49 50 51 53 54 55 56 56 57 58 60 61 62 63 64 65 66 68 69 70 71 71 72 73 73 75 76 76 77 77 75
37 38 39 40 41 42 43 43 44 46 48 49 50 52 53 55 55 56 58 59 60 61 62 63 64 65 66 68 70 70 71 72 73 74 75 76 76 77 78 78 78 77 75
38 39 40 41 42 42 43 44 46 48 49 51 52 54 55 56 57 58 60 61 62 63 64 65 66 67 69 71 72 72 72 73 74 76 78 78 78 78 78 78 76 74 71
38 39 40 41 42 43 44 46 48 50 51 53 54 55 56 57 59 60 61 62 63 64 65 67 68 70 72 74 74 74 74 74 76 77 78 78 77 76 74 73 70 67 63
38 39 40 41 42 44 46 48 49 51 52 53 55 56 57 59 60 62 63 64 65 66 68 69 71 72 73 74 75 76 75 75 76 76 76 75 72 70 67 65 63 59 55
38 39 40 42 43 45 47 49 50 52 53 55 56 57 59 60 62 63 65 67 68 69 70 71 72 74 74 75 76 76 76 76 76 75 73 69 66 63 60 57 54 51 47
39 40 41 43 45 47 48 50 51 53 54 56 57 59 60 62 64 65 67 69 70 72 72 73 74 75 75 75 75 76 76 76 74 71 67 63 60 56 53 49 47 44 42
40 41 43 44 46 48 50 51 53 54 56 57 59 61 62 64 66 67 69 70 72 73 74 75 75 75 75 75 75 74 74 71 68 65 61 57 53 50 46 43 41 39 37
41 43 44 46 47 49 51 52 54 56 58 60 61 63 65 66 68 69 70 71 72 73 75 75 75 74 74 74 72 70 67 64 62 59 54 51 47 44 41 39 37 35 32
43 45 46 48 49 51 52 54 56 57 60 62 64 65 67 68 69 71 71 72 73 75 76 75 75 73 72 70 67 64 61 58 56 52 49 46 43 40 38 36 33 31 29
45 47 48 50 51 52 54 56 58 60 62 64 66 67 69 70 71 72 72 74 75 76 76 75 73 71 69 65 62 58 56 53 50 48 45 42 39 36 34 32 30 28 26
46 48 49 51 53 54 56 58 60 62 63 65 67 69 70 71 72 73 74 75 75 75 74 72 70 67 64 60 57 54 52 49 46 44 41 38 35 33 31 28 26 24 23
48 50 51 53 55 57 59 61 63 64 66 67 69 70 71 72 73 74 75 75 73 71 70 68 65 62 59 56 54 51 48 45 43 40 37 34 32 29 27 25 24 22 21
50 52 54 56 58 60 62 64 66 67 68 69 70 71 72 73 74 74 74 72 70 67 65 63 61 58 56 53 50 47 45 42 38 35 33 31 29 26 24 22 21 21 20
52 54 57 59 60 62 64 66 68 69 70 71 72 72 74 75 74 72 69 67 65 63 61 60 58 56 53 50 47 44 41 37 34 32 30 28 26 24 22 21 20 19 19
55 57 59 61 63 65 66 68 70 71 72 73 73 74 74 73 70 67 65 63 61 60 58 57 55 52 49 46 42 39 36 33 31 29 28 25 23 21 20 19 19 18 18
58 60 61 63 65 67 69 70 71 73 74 74 74 72 70 68 66 64 62 60 58 57 56 53 50 46 44 41 37 34 32 30 29 27 25 23 22 21 20 19 18 17 17
60 62 63 65 67 69 70 72 73 74 74 72 70 68 66 65 64 61 59 57 55 53 51 48 44 41 39 36 33 31 29 28 26 24 23 21 21 20 19 18 18 17 16
62 64 66 68 69 70 72 73 73 72 70 68 66 65 63 61 59 57 55 52 50 48 45 42 39 37 35 32 30 28 27 26 24 22 21 20 19 19 18 18 18 17 17
65 67 69 69 70 71 72 71 70 67 65 64 63 61 59 58 55 53 50 48 45 43 40 38 36 33 31 29 27 25 24 23 21 21 20 19 19 19 18 18 18 18 17
67 68 69 70 71 72 71 69 66 63 62 61 60 58 56 54 51 49 46 44 42 39 37 35 33 31 29 27 25 23 22 21 20 19 19 19 19 19 19 19 19 18 18
Wind_Direction
274 276 278 279 281 282 284 286 287 289 291 291 292 294 295 296 296 297 298 298 299 299 298 298 298 298 298 297 297 297 297 296 296 296 295 294 293 292 291 291 290 289 288
275 277 279 280 282 284 285 286 288 290 291 292 293 294 295 296 296 297 298 299 299 299 299 299 299 298 298 298 298 298 297 297 297 296 296 294 294 293 292 292 291 291 290
276 278 279 280 282 284 285 287 289 290 291 292 294 294 295 296 297 298 298 299 299 299 299 299 299 299 299 298 298 298 298 298 297 297 296 295 295 294 293 293 292 292 291
277 278 279 281 282 284 286 288 289 290 291 293 294 295 295 296 297 298 298 299 299 299 299 299 299 299 299 299 299 299 299 298 298 297 297 296 295 295 294 293 293 292 292
277 278 279 281 283 285 287 288 290 290 292 293 294 295 296 297 298 298 299 299 299 299 299 299 300 300 300 300 300 299 299 298 298 297 297 296 296 295 294 294 293 292 292
278 279 281 283 284 286 287 288 289 290 292 293 294 295 297 298 298 299 299 299 300 300 300 300 300 300 300 300 300 300 300 299 298 298 298 298 297 296 295 295 294 293 292
279 280 282 283 285 286 287 288 289 291 292 294 295 296 297 298 298 299 299 300 300 300 301 301 301 301 301 301 301 300 300 300 299 299 299 299 298 297 296 295 295 294 293
280 281 282 283 285 286 287 288 290 291 293 295 296 297 298 298 299 299 299 300 301 301 301 301 301 302 302 301 301 301 300 300 300 300 300 299 299 298 297 296 295 294 293
281 282 283 284 285 287 288 290 291 293 294 296 297 297 298 299 299 299 300 300 301 301 302 302 302 303 302 302 301 301 301 301 300 300 300 300 299 298 297 296 296 295 294
282 283 284 285 287 288 290 291 293 294 295 296 297 298 298 299 299 300 300 301 301 301 302 303 303 303 303 302 302 302 302 301 301 301 300 300 299 298 297 296 296 295 294
284 285 286 287 289 291 292 293 294 295 296 297 298 298 299 299 300 300 301 301 302 302 303 303 304 304 303 303 302 302 302 302 302 301 300 299 298 297 296 296 295 294 293
286 287 288 290 291 292 293 294 295 296 297 297 298 299 300 300 301 301 301 302 302 303 304 304 304 304 304 303 303 303 303 302 301 301 300 299 298 297 296 295 293 293 292
288 290 291 292 293 294 295 296 296 297 297 298 299 300 300 301 301 301 302 302 303 303 304 305 305 305 304 304 304 304 303 302 301 301 300 299 297 296 295 293 293 292 290
290 292 293 294 295 295 296 297 297 298 299 299 300 301 301 302 302 302 302 303 303 303 304 305 305 305 305 305 305 304 303 302 301 301 300 298 296 295 293 292 292 290 288
292 293 294 295 296 296 297 298 299 299 300 301 302 302 302 302 302 303 303 303 304 304 305 305 306 305 305 305 304 304 303 302 301 300 299 297 295 293 292 291 290 288 285
294 295 296 296 297 298 299 299 300 301 301 302 302 303 303 303 303 303 304 304 304 305 305 306 306 306 306 305 304 303 303 302 300 299 298 296 294 291 290 289 287 285 283
295 296 297 298 298 299 300 300 301 301 302 303 303 303 304 304 304 304 304 305 305 305 305 306 306 306 305 305 304 303 302 301 299 298 297 295 293 290 288 286 283 282 280
297 298 298 299 300 300 301 301 302 303 303 303 304 304 304 304 305 305 305 305 305 305 305 306 305 305 305 304 304 303 302 300 298 296 295 293 292 288 285 282 279 279 278
298 299 299 300 301 301 302 302 303 304 304 304 304 304 304 304 305 305 304 305 305 305 305 305 305 305 304 304 303 302 300 299 296 294 293 291 288 285 282 278 277 276 275
299 300 300 301 302 303 303 303 304 305 305 305 305 305 304 305 305 305 304 304 304 304 304 304 304 304 303 303 302 300 298 296 294 292 291 289 285 280 277 274 273 273 271
300 301 302 302 303 304 304 305 305 305 306 305 305 305 305 305 305 305 305 305 304 304 304 304 304 303 302 302 300 298 296 293 291 289 288 285 280 275 272 271 270 270 267
301 302 303 304 304 305 305 306 306 306 306 306 306 305 305 305 306 305 305 304 304 304 305 304 303 302 302 301 299 296 294 290 288 287 284 280 275 271 269 267 266 266 262
303 303 304 304 305 305 306 306 306 306 306 306 306 306 305 306 305 305 304 304 304 304 304 304 303 301 301 300 297 295 293 289 286 282 278 275 271 267 265 262 261 260 257
304 304 305 305 305 306 306 306 306 306 306 306 306 306 306 305 305 305 304 304 303 304 304 303 302 301 299 298 296 294 292 288 282 277 273 271 268 264 261 258 257 257 253
304 305 305 306 306 306 307 307 306 306 306 306 306 306 306 306 306 305 304 303 303 303 303 302 301 300 298 297 295 292 290 286 280 274 270 267 264 260 257 256 255 254 250
305 305 306 306 307 307 307 306 306 306 306 306 306 306 306 306 305 305 304 303 302 302 301 301 299 297 296 295 292 289 287 284 279 274 269 265 261 258 255 254 253 251 246
Height
5730 5729 5728 5726 5725 5723 5721 5718 5716 5713 5710 5707 5703 5699 5696 5692 5687 5683 5679 5675 5670 5665 5661 5656 5651 5646 5641 5636 5630 5625 5620 5615 5611 5608 5601 5595 5589 5583 5578 5573 5569 5564 5560
5722 5721 5719 5718 5716 5714 5712 5709 5706 5703 5700 5696 5693 5689 5685 5681 5676 5672 5667 5663 5658 5653 5648 5643 5638 5632 5627 5621 5616 5610 5605 5599 5594 5590 5584 5577 5571 5565 5560 5555 5549 5544 5540
5713 5712 5710 5709 5706 5704 5702 5699 5696 5693 5689 5686 5682 5678 5674 5669 5665 5660 5656 5651 5646 5640 5635 5630 5624 5618 5612 5606 5601 5594 5588 5582 5576 5571 5567 5560 5553 5546 5541 5535 5529 5524 5518
5704 5703 5701 5699 5697 5694 5692 5689 5685 5682 5678 5675 5671 5666 5662 5658 5653 5648 5643 5638 5633 5627 5622 5616 5610 5603 5597 5591 5585 5578 5571 5565 5559 5553 5548 5541 5534 5527 5520 5514 5509 5503 5497
5695 5693 5692 5689 5687 5684 5681 5678 5675 5671 5667 5663 5659 5655 5650 5646 5641 5635 5630 5625 5619 5614 5607 5601 5595 5588 5581 5574 5568 5561 5554 5547 5540 5534 5528 5522 5515 5506 5499 5492 5487 5481 5475
5685 5684 5681 5679 5676 5674 5670 5667 5664 5660 5656 5652 5647 5643 5638 5633 5627 5622 5616 5611 5605 5599 5593 5586 5579 5572 5565 5558 5550 5542 5535 5527 5520 5513 5507 5501 5493 5484 5477 5470 5463 5458 5454
5675 5673 5671 5669 5666 5663 5659 5656 5652 5648 5644 5640 5635 5630 5625 5619 5613 5608 5602 5596 5590 5583 5577 5570 5563 5555 5547 5540 5532 5525 5516 5507 5499 5491 5485 5479 5471 5463 5454 5448 5440 5433 5428
5665 5663 5660 5657 5655 5651 5648 5645 5641 5637 5632 5627 5622 5617 5611 5605 5599 5593 5586 5580 5574 5567 5560 5553 5545 5538 5529 5520 5513 5506 5498 5489 5480 5470 5463 5456 5447 5439 5430 5422 5416 5410 5406
5655 5652 5649 5646 5643 5640 5637 5633 5629 5624 5619 5614 5609 5603 5597 5591 5584 5577 5570 5564 5558 5551 5544 5535 5527 5519 5511 5501 5493 5486 5478 5470 5460 5450 5442 5433 5425 5416 5406 5399 5394 5388 5385
5644 5641 5638 5635 5632 5629 5625 5620 5616 5611 5606 5601 5595 5589 5583 5576 5569 5561 5553 5547 5541 5535 5527 5518 5510 5500 5491 5480 5471 5463 5456 5448 5439 5430 5421 5413 5404 5396 5388 5380 5374 5369 5365
5633 5630 5627 5624 5620 5617 5612 5608 5603 5598 5593 5587 5581 5575 5568 5561 5554 5546 5537 5529 5522 5515 5508 5500 5491 5481 5471 5461 5450 5442 5434 5425 5417 5409 5400 5393 5385 5378 5371 5364 5358 5353 5350
5622 5619 5616 5612 5608 5604 5599 5595 5589 5584 5578 5572 5566 5560 5552 5545 5537 5529 5520 5511 5502 5495 5488 5480 5471 5461 5451 5441 5431 5422 5412 5403 5394 5387 5380 5373 5367 5361 5355 5350 5345 5341 5338
5611 5608 5604 5600 5596 5591 5586 5581 5575 5569 5563 5557 5550 5544 5536 5528 5520 5511 5503 5494 5484 5475 5468 5460 5450 5440 5430 5421 5412 5402 5391 5382 5375 5368 5362 5356 5350 5346 5341 5337 5334 5330 5328
5599 5596 5592 5587 5583 5578 5572 5567 5561 5554 5547 5541 5533 5526 5519 5511 5502 5493 5485 5476 5467 5457 5449 5440 5431 5421 5411 5402 5392 5383 5373 5365 5357 5351 5346 5341 5336 5332 5329 5325 5323 5320 5318
5587 5583 5579 5574 5569 5564 5558 5552 5546 5539 5531 5524 5516 5508 5501 5494 5484 5474 5465 5457 5448 5438 5428 5421 5412 5402 5393 5384 5375 5366 5357 5350 5343 5337 5331 5327 5324 5320 5317 5315 5312 5311 5309
5574 5570 5565 5560 5555 5549 5543 5538 5530 5523 5515 5506 5498 5490 5482 5474 5465 5455 5446 5437 5427 5417 5407 5400 5391 5382 5374 5365 5357 5350 5342 5335 5329 5323 5319 5315 5312 5309 5307 5305 5303 5302 5301
5561 5556 5551 5546 5540 5534 5528 5521 5515 5508 5499 5490 5481 5472 5463 5454 5445 5436 5426 5417 5408 5397 5387 5379 5371 5363 5355 5348 5341 5334 5328 5322 5316 5311 5307 5304 5301 5299 5297 5296 5295 5294 5293
5547 5542 5537 5531 5525 5518 5512 5504 5497 5490 5483 5474 5464 5454 5444 5435 5426 5416 5406 5396 5388 5379 5369 5361 5353 5346 5339 5332 5326 5320 5314 5309 5304 5300 5297 5294 5292 5290 5288 5288 5287 5287 5286
5533 5528 5522 5516 5509 5502 5495 5487 5479 5471 5463 5455 5446 5436 5426 5416 5407 5397 5386 5376 5368 5361 5352 5344 5337 5330 5323 5317 5311 5306 5301 5297 5293 5289 5287 5285 5283 5282 5281 5280 5280 5280 5280
5519 5513 5506 5500 5493 5485 5477 5469 5461 5452 5443 5435 5426 5416 5406 5396 5387 5378 5368 5358 5350 5343 5335 5328 5321 5314 5308 5303 5298 5293 5289 5285 5282 5280 5277 5276 5275 5274 5273 5273 5273 5273 5274
5504 5497 5490 5483 5475 5467 5459 5450 5442 5433 5424 5415 5406 5396 5385 5375 5367 5358 5350 5341 5333 5326 5319 5312 5306 5300 5294 5289 5284 5281 5277 5274 5272 5270 5269 5267 5267 5266 5266 5267 5267 5267 5268
5488 5481 5474 5466 5458 5449 5441 5432 5423 5413 5404 5394 5385 5376 5365 5355 5347 5340 5332 5324 5317 5310 5303 5297 5291 5286 5281 5276 5272 5269 5267 5264 5263 5261 5260 5259 5259 5259 5260 5260 5261 5261 5262
5472 5464 5457 5448 5440 5431 5422 5413 5403 5393 5384 5374 5365 5356 5347 5338 5330 5322 5315 5308 5301 5295 5288 5282 5278 5273 5269 5265 5262 5259 5257 5255 5254 5252 5252 5252 5252 5252 5253 5254 5255 5255 5256
5455 5447 5439 5430 5421 5413 5403 5394 5384 5374 5364 5355 5346 5338 5329 5321 5313 5305 5298 5292 5286 5281 5275 5270 5266 5262 5258 5255 5252 5250 5248 5246 5245 5244 5244 5245 5245 5246 5247 5247 5249 5250 5251
5437 5429 5421 5412 5403 5394 5384 5374 5365 5355 5346 5337 5329 5320 5312 5304 5297 5290 5283 5277 5272 5268 5263 5259 5255 5252 5248 5245 5243 5241 5239 5238 5237 5237 5237 5238 5238 5239 5240 5241 5243 5244 5245
5420 5411 5402 5393 5384 5374 5365 5355 5346 5337 5329 5321 5312 5304 5297 5289 5282 5275 5270 5264 5260 5256 5252 5248 5245 5242 5239 5237 5235 5233 5232 5231 5230 5230 5230 5231 5232 5233 5234 5235 5236 5238 5239